OK1FET-14 Weather Reports


time (UTC)temp
C
wind
direction
speed
KPH
gust
KPH
rain 1hr
cm
rain 24hr
cm
rain mn
cm
humidity
%
barometer
mb
20260906023711 12 294 8.0 11.3 0.00 0.00 0.00 76 1026.8
20260906023231 12 285 9.7 16.1 0.00 0.00 0.00 76 1026.8
20260906022751 12 288 8.0 11.3 0.00 0.00 0.00 76 1026.7
20260906022311 12 270 8.0 11.3 0.00 0.00 0.00 76 1026.8
20260906021830 12 293 9.7 14.5 0.00 0.00 0.00 76 1026.7
20260906021350 12 300 9.7 14.5 0.00 0.00 0.00 77 1026.7
20260906020910 12 291 9.7 14.5 0.00 0.00 0.00 76 1026.6
20260906020430 12 297 8.0 11.3 0.00 0.00 0.00 76 1026.6
20260906015950 12 279 6.4 11.3 0.00 0.00 0.00 77 1026.5
20260906015509 12 273 4.8 8.0 0.00 0.00 0.00 77 1026.4
20260906015029 12 270 6.4 8.0 0.00 0.00 0.00 76 1026.4
20260906014549 12 268 8.0 9.7 0.00 0.00 0.00 76 1026.5
20260906014109 12 282 6.4 12.9 0.00 0.00 0.00 74 1026.4
20260906013629 12 289 8.0 11.3 0.00 0.00 0.00 74 1026.3
20260906013148 12 290 8.0 12.9 0.00 0.00 0.00 73 1026.2
20260906012708 12 311 8.0 12.9 0.00 0.00 0.00 73 1026.2
20260906012228 12 298 6.4 11.3 0.00 0.00 0.00 73 1026.3
20260906011748 12 289 8.0 14.5 0.00 0.00 0.00 72 1026.2
20260906011307 12 297 8.0 14.5 0.00 0.00 0.00 72 1026.2
20260906010827 12 309 6.4 9.7 0.00 0.00 0.00 72 1026.2
20260906010347 12 292 8.0 12.9 0.00 0.00 0.00 71 1026.1
20260906005907 12 309 8.0 22.5 0.00 0.00 0.00 71 1026.1
20260906005426 12 300 11.3 14.5 0.00 0.00 0.00 71 1026.1
20260906004946 13 286 11.3 16.1 0.00 0.00 0.00 71 1026.2
20260906004506 12 306 8.0 12.9 0.00 0.00 0.00 71 1026.2
20260906004026 13 294 11.3 14.5 0.00 0.00 0.00 71 1026.2
20260906003545 13 310 9.7 16.1 0.00 0.00 0.00 71 1026.3
20260906003105 13 286 12.9 20.9 0.00 0.00 0.00 71 1026.3
20260906002625 13 288 9.7 19.3 0.00 0.00 0.00 71 1026.2
20260906002145 13 296 9.7 17.7 0.00 0.00 0.00 72 1026.3
20260906001704 13 286 9.7 16.1 0.00 0.00 0.00 72 1026.2
20260906001224 13 300 8.0 11.3 0.00 0.00 0.00 72 1026.3
20260906000744 13 304 8.0 12.9 0.00 0.00 0.00 72 1026.2
20260906000304 13 295 8.0 12.9 0.00 0.00 0.00 72 1026.1
20260905235823 13 292 8.0 14.5 0.00 0.00 0.00 72 1026.1
20260905235343 13 307 6.4 12.9 0.00 0.00 0.00 71 1026.0
20260905234903 13 312 6.4 9.7 0.00 0.00 0.00 71 1026.0
20260905234422 13 301 4.8 8.0 0.00 0.00 0.00 70 1026.0
20260905233942 13 309 4.8 8.0 0.00 0.00 0.00 69 1025.9
20260905233502 13 298 6.4 11.3 0.00 0.00 0.00 69 1025.9
20260905233021 13 297 8.0 12.9 0.00 0.00 0.00 69 1025.8
20260905232541 13 298 8.0 14.5 0.00 0.00 0.00 69 1025.8
20260905232101 13 292 8.0 16.1 0.00 0.00 0.00 68 1025.7
20260905231621 13 300 8.0 12.9 0.00 0.00 0.00 68 1025.8
20260905231140 13 293 9.7 14.5 0.00 0.00 0.00 68 1025.7
20260905230700 13 314 9.7 14.5 0.00 0.00 0.00 68 1025.7
20260905230220 13 290 8.0 14.5 0.00 0.00 0.00 68 1025.7
20260905225739 13 285 8.0 12.9 0.00 0.00 0.00 67 1025.6
20260905225259 13 286 6.4 11.3 0.00 0.00 0.00 67 1025.7
20260905224819 13 285 6.4 11.3 0.00 0.00 0.00 66 1025.6
20260905224338 13 286 6.4 11.3 0.00 0.00 0.00 66 1025.7
20260905223858 13 292 6.4 9.7 0.00 0.00 0.00 66 1025.6
20260905223418 14 278 9.7 12.9 0.00 0.00 0.00 65 1025.5
20260905222937 14 289 9.7 16.1 0.00 0.00 0.00 65 1025.6
20260905222457 14 294 8.0 16.1 0.00 0.00 0.00 65 1025.5
20260905222017 14 285 6.4 12.9 0.00 0.00 0.00 65 1025.6
20260905221536 14 280 8.0 12.9 0.00 0.00 0.00 65 1025.5
20260905221056 14 287 8.0 12.9 0.00 0.00 0.00 64 1025.6
20260905220616 14 294 12.9 20.9 0.00 0.00 0.00 64 1025.5
20260905220135 14 278 9.7 14.5 0.00 0.00 0.00 64 1025.5
20260905215655 14 300 9.7 12.9 0.00 0.00 0.00 64 1025.5
20260905215215 14 312 9.7 14.5 0.00 0.00 0.00 64 1025.5
20260905214734 14 291 8.0 14.5 0.00 0.00 0.00 64 1025.4
20260905214254 14 297 6.4 9.7 0.00 0.00 0.00 63 1025.4
20260905213814 14 288 6.4 11.3 0.00 0.00 0.00 63 1025.4
20260905213333 14 284 6.4 9.7 0.00 0.00 0.00 63 1025.4
20260905212853 14 273 6.4 11.3 0.00 0.00 0.00 62 1025.4
20260905212412 14 287 8.0 14.5 0.00 0.00 0.00 62 1025.3
20260905211932 14 279 8.0 14.5 0.00 0.00 0.00 63 1025.2
20260905211452 14 263 6.4 8.0 0.00 0.00 0.00 63 1025.3
20260905211011 13 257 6.4 9.7 0.00 0.00 0.00 63 1025.2
20260905210531 13 252 6.4 8.0 0.00 0.00 0.00 63 1025.2
20260905210051 13 256 6.4 11.3 0.00 0.00 0.00 62 1025.2
20260905205610 13 235 6.4 8.0 0.00 0.00 0.00 62 1025.1
20260905205130 13 235 6.4 9.7 0.00 0.00 0.00 62 1025.1
20260905204650 13 228 4.8 6.4 0.00 0.00 0.00 62 1025.1
20260905204209 13 229 4.8 8.0 0.00 0.00 0.00 62 1025.0
20260905203729 14 248 4.8 8.0 0.00 0.00 0.00 61 1025.0
20260905203249 14 247 6.4 9.7 0.00 0.00 0.00 60 1024.9
20260905202808 15 267 8.0 12.9 0.00 0.00 0.00 59 1024.9
20260905202328 15 261 8.0 12.9 0.00 0.00 0.00 59 1024.8
20260905201847 15 271 6.4 12.9 0.00 0.00 0.00 59 1024.8
20260905201407 15 254 9.7 12.9 0.00 0.00 0.00 58 1024.6
20260905200927 15 274 6.4 12.9 0.00 0.00 0.00 58 1024.6
20260905200446 15 276 8.0 11.3 0.00 0.00 0.00 58 1024.5
20260905200006 15 263 6.4 12.9 0.00 0.00 0.00 58 1024.5
20260905195525 15 261 6.4 11.3 0.00 0.00 0.00 57 1024.4
20260905195045 15 276 8.0 12.9 0.00 0.00 0.00 57 1024.4
20260905194605 15 270 8.0 16.1 0.00 0.00 0.00 56 1024.3
20260905194124 15 286 11.3 20.9 0.00 0.00 0.00 56 1024.2
20260905193644 15 286 11.3 19.3 0.00 0.00 0.00 56 1024.2
20260905193203 15 281 9.7 14.5 0.00 0.00 0.00 57 1024.2
20260905192723 15 275 9.7 17.7 0.00 0.00 0.00 57 1024.2
20260905192243 15 274 9.7 14.5 0.00 0.00 0.00 57 1024.1
20260905191802 15 270 9.7 16.1 0.00 0.00 0.00 57 1024.2
20260905191322 15 273 9.7 14.5 0.00 0.00 0.00 57 1024.0
20260905190841 15 269 11.3 19.3 0.00 0.00 0.00 57 1024.0
20260905190401 15 258 9.7 16.1 0.00 0.00 0.00 57 1024.0
20260905185920 15 255 11.3 14.5 0.00 0.00 0.00 57 1024.0
20260905185440 15 272 9.7 12.9 0.00 0.00 0.00 57 1023.8
20260905184959 15 264 12.9 17.7 0.00 0.00 0.00 57 1023.9
20260905184519 15 267 11.3 12.9 0.00 0.00 0.00 57 1023.7
20260905184039 15 256 9.7 14.5 0.00 0.00 0.00 57 1023.7
20260905183558 15 255 11.3 14.5 0.00 0.00 0.00 56 1023.7
20260905183118 15 272 11.3 16.1 0.00 0.00 0.00 56 1023.6
20260905182637 16 270 9.7 14.5 0.00 0.00 0.00 56 1023.6
20260905182157 16 264 11.3 17.7 0.00 0.00 0.00 56 1023.4
20260905181716 16 266 11.3 16.1 0.00 0.00 0.00 56 1023.4
20260905181236 16 266 9.7 14.5 0.00 0.00 0.00 56 1023.3
20260905180755 16 256 8.0 12.9 0.00 0.00 0.00 56 1023.3
20260905180315 16 258 9.7 12.9 0.00 0.00 0.00 55 1023.3
20260905175834 16 266 9.7 14.5 0.00 0.00 0.00 54 1023.2
20260905175354 16 267 9.7 16.1 0.00 0.00 0.00 53 1023.1
20260905174913 16 279 9.7 16.1 0.00 0.00 0.00 53 1023.1
20260905174433 16 274 9.7 14.5 0.00 0.00 0.00 53 1023.0
20260905173952 17 271 8.0 16.1 0.00 0.00 0.00 52 1022.9
20260905173511 17 269 11.3 17.7 0.00 0.00 0.00 51 1022.7
20260905173031 17 269 9.7 16.1 0.00 0.00 0.00 50 1022.7
20260905172550 17 270 11.3 19.3 0.00 0.00 0.00 49 1022.6
20260905172110 18 290 11.3 17.7 0.00 0.00 0.00 49 1022.6
20260905171629 18 273 11.3 22.5 0.00 0.00 0.00 48 1022.4
20260905171148 18 288 9.7 19.3 0.00 0.00 0.00 49 1022.5
20260905170708 18 259 11.3 17.7 0.00 0.00 0.00 48 1022.5
20260905170227 18 264 11.3 20.9 0.00 0.00 0.00 48 1022.3
20260905165746 18 279 9.7 14.5 0.00 0.00 0.00 48 1022.3
20260905165306 18 283 9.7 17.7 0.00 0.00 0.00 47 1022.2
20260905164825 18 261 11.3 19.3 0.00 0.00 0.00 48 1022.2
20260905164344 18 278 11.3 20.9 0.00 0.00 0.00 47 1022.1
20260905163904 18 285 9.7 19.3 0.00 0.00 0.00 47 1022.1
20260905163423 19 274 9.7 17.7 0.00 0.00 0.00 46 1022.0
20260905162942 18 294 9.7 17.7 0.00 0.00 0.00 47 1021.9
20260905162501 19 289 8.0 12.9 0.00 0.00 0.00 46 1021.8
20260905162021 19 249 20.9 33.8 0.00 0.00 0.00 45 1021.8
20260905161540 20 265 14.5 24.1 0.00 0.00 0.00 43 1021.4
20260905161059 21 270 17.7 30.6 0.00 0.00 0.00 41 1021.6
20260905160618 20 279 16.1 24.1 0.00 0.00 0.00 42 1021.5
20260905160137 21 260 12.9 22.5 0.00 0.00 0.00 41 1021.4
20260905155656 20 255 14.5 19.3 0.00 0.00 0.00 44 1021.5
20260905155215 20 264 16.1 27.4 0.00 0.00 0.00 42 1021.3
20260905154735 20 267 17.7 27.4 0.00 0.00 0.00 41 1021.5
20260905154254 22 285 11.3 20.9 0.00 0.00 0.00 40 1021.4
20260905153813 21 287 14.5 32.2 0.00 0.00 0.00 40 1021.2
20260905153332 22 286 17.7 27.4 0.00 0.00 0.00 38 1021.4
20260905152851 22 273 19.3 29.0 0.00 0.00 0.00 38 1020.8
20260905152410 23 267 14.5 22.5 0.00 0.00 0.00 39 1021.3
20260905151929 22 262 12.9 24.1 0.00 0.00 0.00 39 1021.3
20260905151448 21 269 17.7 24.1 0.00 0.00 0.00 41 1021.2
20260905151007 21 260 14.5 27.4 0.00 0.00 0.00 41 1021.3
20260905150526 23 281 14.5 24.1 0.00 0.00 0.00 39 1021.1
20260905150045 23 274 17.7 29.0 0.00 0.00 0.00 38 1021.1
20260905145603 24 267 14.5 30.6 0.00 0.00 0.00 37 1021.1
20260905145122 25 289 11.3 17.7 0.00 0.00 0.00 37 1021.2
20260905144641 24 280 11.3 19.3 0.00 0.00 0.00 38 1021.1
20260905144200 23 254 17.7 30.6 0.00 0.00 0.00 38 1021.1
20260905143719 23 261 22.5 35.4 0.00 0.00 0.00 36 1020.8
20260905143238 23 264 20.9 30.6 0.00 0.00 0.00 37 1020.8
20260905142757 23 261 29.0 41.8 0.00 0.00 0.00 37 1020.6
20260905142316 23 257 17.7 29.0 0.00 0.00 0.00 37 1021.1
20260905141835 24 238 12.9 20.9 0.00 0.00 0.00 39 1021.0
20260905141354 23 238 24.1 41.8 0.00 0.00 0.00 38 1021.1
20260905140913 23 235 22.5 32.2 0.00 0.00 0.00 38 1021.0
20260905140432 23 255 25.7 33.8 0.00 0.00 0.00 39 1020.9
20260905135951 23 237 20.9 38.6 0.00 0.00 0.00 38 1021.0
20260905135510 22 259 22.5 33.8 0.00 0.00 0.00 42 1021.1
20260905135029 22 248 20.9 32.2 0.00 0.00 0.00 40 1021.0
20260905134548 21 229 22.5 29.0 0.00 0.00 0.00 42 1021.1
20260905134107 22 250 17.7 30.6 0.00 0.00 0.00 41 1021.1
20260905133626 21 238 22.5 33.8 0.00 0.00 0.00 42 1021.1
20260905133145 21 241 17.7 29.0 0.00 0.00 0.00 42 1021.0
20260905132704 21 248 22.5 32.2 0.00 0.00 0.00 42 1021.1
20260905132223 22 252 24.1 33.8 0.00 0.00 0.00 41 1021.1
20260905131742 22 261 19.3 32.2 0.00 0.00 0.00 40 1020.9
20260905131301 22 238 25.7 33.8 0.00 0.00 0.00 42 1020.9
20260905130820 20 235 20.9 27.4 0.00 0.00 0.00 45 1021.0
20260905130339 21 229 20.9 30.6 0.00 0.00 0.00 44 1021.0
20260905125858 20 248 20.9 32.2 0.00 0.00 0.00 45 1020.7
20260905125417 21 244 19.3 30.6 0.00 0.00 0.00 44 1021.2
20260905124937 21 251 22.5 32.2 0.00 0.00 0.00 43 1021.1
20260905124456 19 209 24.1 32.2 0.00 0.00 0.00 46 1021.0
20260905124015 21 242 24.1 33.8 0.00 0.00 0.00 44 1021.0
20260905123534 21 229 24.1 30.6 0.00 0.00 0.00 42 1021.0
20260905123053 21 252 19.3 25.7 0.00 0.00 0.00 44 1021.2
20260905122612 20 263 17.7 30.6 0.00 0.00 0.00 47 1021.3
20260905122131 19 252 16.1 22.5 0.00 0.00 0.00 49 1021.2
20260905121651 19 260 14.5 24.1 0.00 0.00 0.00 48 1021.4
20260905121210 20 263 16.1 24.1 0.00 0.00 0.00 48 1021.3
20260905120729 19 256 12.9 24.1 0.00 0.00 0.00 48 1021.3
20260905120248 20 275 12.9 22.5 0.00 0.00 0.00 48 1021.2
20260905115807 20 264 12.9 27.4 0.00 0.00 0.00 47 1021.5
20260905115326 21 275 16.1 29.0 0.00 0.00 0.00 45 1021.5
20260905114845 21 237 14.5 25.7 0.00 0.00 0.00 47 1021.5
20260905114405 20 261 14.5 24.1 0.00 0.00 0.00 48 1021.5
20260905113924 20 231 22.5 37.0 0.00 0.00 0.00 47 1021.3
20260905113443 20 252 20.9 32.2 0.00 0.00 0.00 47 1021.5
20260905113002 19 239 20.9 29.0 0.00 0.00 0.00 49 1021.5
20260905112521 19 242 19.3 29.0 0.00 0.00 0.00 49 1021.6
20260905112041 20 259 12.9 24.1 0.00 0.00 0.00 49 1021.6
20260905111600 21 240 17.7 29.0 0.00 0.00 0.00 48 1021.6
20260905111119 20 273 16.1 27.4 0.00 0.00 0.00 48 1021.4
20260905110638 19 264 17.7 29.0 0.00 0.00 0.00 55 1021.8
20260905110158 18 235 20.9 33.8 0.00 0.00 0.00 54 1021.6
20260905105717 18 244 20.9 32.2 0.00 0.00 0.00 54 1021.5
20260905105236 17 260 19.3 25.7 0.00 0.00 0.00 54 1021.2
20260905104756 17 240 22.5 32.2 0.00 0.00 0.00 56 1021.5
20260905104315 18 243 20.9 29.0 0.00 0.00 0.00 55 1021.4
20260905103834 17 249 17.7 25.7 0.00 0.00 0.00 57 1021.4
20260905103354 18 237 16.1 22.5 0.00 0.00 0.00 55 1021.4
20260905102913 18 261 17.7 25.7 0.00 0.00 0.00 56 1021.3
20260905102432 17 249 17.7 27.4 0.00 0.00 0.00 57 1021.3
20260905101952 18 264 17.7 25.7 0.00 0.00 0.00 56 1021.4
20260905101511 18 256 19.3 33.8 0.00 0.00 0.00 53 1021.3
20260905101030 18 235 22.5 37.0 0.00 0.00 0.00 53 1021.3
20260905100550 18 229 29.0 37.0 0.00 0.00 0.00 52 1021.4
20260905100109 18 249 29.0 43.5 0.00 0.00 0.00 55 1021.1
20260905095628 18 223 32.2 43.5 0.00 0.00 0.00 52 1021.2
20260905095148 18 235 19.3 30.6 0.00 0.00 0.00 56 1021.3
20260905094707 18 237 27.4 35.4 0.00 0.00 0.00 55 1021.1
20260905094226 18 235 20.9 30.6 0.00 0.00 0.00 55 1020.9
20260905093746 17 242 22.5 29.0 0.00 0.00 0.00 57 1021.2
20260905093305 17 238 20.9 29.0 0.00 0.00 0.00 59 1021.4
20260905092824 17 225 27.4 33.8 0.00 0.00 0.00 58 1021.3
20260905092344 18 238 22.5 32.2 0.00 0.00 0.00 57 1021.1
20260905091903 18 235 25.7 37.0 0.00 0.00 0.00 57 1021.1
20260905091422 17 231 27.4 38.6 0.00 0.00 0.00 61 1021.3
20260905090942 17 234 20.9 30.6 0.00 0.00 0.00 62 1021.3
20260905090501 18 243 20.9 29.0 0.00 0.00 0.00 60 1021.3
20260905090021 16 229 24.1 33.8 0.00 0.00 0.00 65 1021.3
20260905085540 16 224 29.0 38.6 0.00 0.00 0.00 66 1021.2
20260905085059 16 231 27.4 35.4 0.00 0.00 0.00 66 1021.0
20260905084619 17 226 20.9 29.0 0.00 0.00 0.00 70 1021.3
20260905084138 16 221 25.7 32.2 0.00 0.00 0.00 75 1021.2
20260905083658 15 231 25.7 33.8 0.00 0.00 0.00 84 1021.2
20260905083217 16 234 24.1 29.0 0.00 0.00 0.00 74 1021.2
20260905082736 16 234 20.9 30.6 0.00 0.00 0.00 76 1021.2
20260905082256 16 222 20.9 24.1 0.00 0.00 0.00 87 1021.2
20260905081815 16 230 19.3 29.0 0.00 0.00 0.00 74 1021.1
20260905081334 16 241 19.3 27.4 0.00 0.00 0.00 83 1021.2
20260905080854 16 230 22.5 32.2 0.00 0.00 0.00 81 1021.3
20260905080413 16 237 19.3 29.0 0.00 0.00 0.00 83 1021.2
20260905075933 16 232 17.7 24.1 0.00 0.00 0.00 85 1021.3
20260905075452 16 244 16.1 27.4 0.00 0.00 0.00 86 1021.2
20260905075011 15 230 17.7 27.4 0.00 0.00 0.00 85 1021.1
20260905074531 15 237 14.5 22.5 0.00 0.00 0.00 88 1021.1
20260905074050 15 234 19.3 27.4 0.00 0.00 0.00 87 1021.2
20260905073610 15 235 19.3 25.7 0.00 0.00 0.00 88 1020.9
20260905073129 15 246 19.3 24.1 0.00 0.00 0.00 89 1021.1
20260905072649 15 230 17.7 24.1 0.00 0.00 0.00 91 1021.0
20260905072208 15 241 16.1 30.6 0.00 0.00 0.00 92 1021.1
20260905071728 14 234 17.7 22.5 0.00 0.00 0.00 92 1020.8
20260905071247 14 237 16.1 20.9 0.00 0.00 0.00 93 1020.8
20260905070807 14 234 14.5 19.3 0.00 0.00 0.00 95 1020.8
20260905070326 14 230 12.9 19.3 0.00 0.00 0.00 96 1020.7
20260905065846 13 225 12.9 17.7 0.00 0.00 0.00 97 1020.7
20260905065405 13 221 12.9 17.7 0.00 0.00 0.00 97 1020.7
20260905064925 13 234 12.9 17.7 0.00 0.00 0.00 98 1020.9
20260905064445 13 228 12.9 16.1 0.00 0.00 0.00 99 1020.9
20260905064004 13 236 12.9 17.7 0.00 0.00 0.00 98 1020.8
20260905063524 13 230 14.5 20.9 0.00 0.00 0.00 98 1020.9
20260905063043 13 222 12.9 19.3 0.00 0.00 0.00 99 1020.8
20260905062603 13 219 12.9 19.3 0.00 0.00 0.00 100 1020.7
20260905062123 13 226 12.9 16.1 0.00 0.00 0.00 100 1020.9
20260905061642 13 238 12.9 16.1 0.00 0.00 0.00 100 1020.8
20260905061202 13 222 12.9 16.1 0.00 0.00 0.00 100 1020.8
20260905060721 13 228 11.3 14.5 0.00 0.00 0.00 100 1020.8
20260905060241 12 243 11.3 12.9 0.00 0.00 0.00 100 1020.7
20260905055801 12 228 8.0 11.3 0.00 0.00 0.00 100 1020.7
20260905055321 12 222 9.7 11.3 0.00 0.00 0.00 100 1020.6
20260905054840 12 232 11.3 14.5 0.00 0.00 0.00 100 1020.5
20260905054400 12 226 11.3 12.9 0.00 0.00 0.00 100 1020.4
20260905053920 12 222 9.7 12.9 0.00 0.00 0.00 100 1020.3
20260905053439 12 225 12.9 14.5 0.00 0.00 0.00 100 1020.1
20260905052959 12 228 11.3 12.9 0.00 0.00 0.00 100 1020.0
20260905052519 12 231 11.3 14.5 0.00 0.00 0.00 100 1020.0
20260905052039 12 231 11.3 14.5 0.00 0.00 0.00 100 1019.9
20260905051558 11 234 11.3 14.5 0.00 0.00 0.00 100 1019.8
20260905051118 11 234 12.9 14.5 0.00 0.00 0.00 100 1019.7
20260905050638 11 231 12.9 14.5 0.00 0.00 0.00 100 1019.6
20260905050158 11 231 14.5 17.7 0.00 0.00 0.00 100 1019.6
20260905045718 11 225 12.9 16.1 0.00 0.00 0.00 100 1019.5
20260905045237 11 228 9.7 14.5 0.00 0.00 0.00 100 1019.4
20260905044757 11 244 9.7 11.3 0.00 0.00 0.00 100 1019.2
20260905044317 11 252 9.7 16.1 0.00 0.00 0.00 100 1019.2
20260905043837 12 255 11.3 16.1 0.00 0.00 0.00 100 1019.2
20260905043357 11 254 11.3 16.1 0.00 0.00 0.00 100 1019.1
20260905042916 11 228 12.9 16.1 0.00 0.00 0.00 100 1019.2
20260905042436 11 243 12.9 16.1 0.00 0.00 0.00 100 1019.1
20260905041956 11 225 11.3 14.5 0.00 0.00 0.00 100 1019.0
20260905041516 11 225 12.9 19.3 0.00 0.00 0.00 100 1019.0
20260905041036 11 240 12.9 19.3 0.00 0.00 0.00 100 1019.1
20260905040555 11 234 14.5 19.3 0.00 0.00 0.00 100 1019.0
20260905040115 11 221 17.7 20.9 0.00 0.00 0.00 100 1018.6
20260905035635 11 198 19.3 20.9 0.00 0.00 0.00 100 1018.4
20260905035155 11 203 19.3 22.5 0.00 0.00 0.00 100 1018.3
20260905034715 11 207 19.3 25.7 0.00 0.00 0.00 100 1018.2
20260905034234 11 198 19.3 24.1 0.00 0.00 0.00 100 1018.0
20260905033754 11 184 22.5 25.7 0.00 0.00 0.00 100 1017.9
20260905033314 11 183 20.9 24.1 0.00 0.00 0.00 100 1017.7
20260905032834 11 183 20.9 24.1 0.00 0.00 0.00 100 1018.2
20260905032354 11 215 19.3 22.5 0.00 0.00 0.00 100 1018.7
20260905031913 11 213 19.3 24.1 0.00 0.00 0.00 100 1018.6
20260905031433 11 193 20.9 24.1 0.00 0.00 0.00 100 1018.4
20260905030953 11 189 20.9 24.1 0.00 0.00 0.00 100 1018.3
20260905030513 11 192 19.3 22.5 0.00 0.00 0.00 100 1018.5
20260905030033 11 195 16.1 19.3 0.00 0.00 0.00 100 1018.3
20260905025552 11 206 14.5 17.7 0.00 0.00 0.00 100 1018.4
20260905025112 11 215 11.3 16.1 0.00 0.00 0.00 100 1018.8
20260905024632 11 206 11.3 16.1 0.00 0.00 0.00 100 1018.8
20260905024152 11 231 12.9 16.1 0.00 0.00 0.00 100 1018.9